SCP
0 0 0 0 0 0 0 0 0 0 0 0 0 0 0 -0 -0 0 0 0 0 0 0 0 0 0 0 0 0 0 0 0 0 0 0 0 0 0 0 0 0 0 0 0 0 0 0 0 1 0 0 0 0 0
0 0 0 0 0 0 0 0 0 0 0 0 0 0 0 0 -0 0 0 0 0 0 0 0 0 0 0 0 0 0 0 0 0 0 0 0 0 0 0 0 0 0 0 0 0 0 0 0 0 1 0 0 0 0
0 0 0 0 0 0 0 0 0 0 0 0 0 0 0 0 0 0 0 0 0 0 0 0 0 0 0 0 0 0 0 0 0 0 0 0 0 0 0 0 0 0 0 0 0 0 0 0 0 1 1 1 1 0
0 0 0 0 0 0 0 0 0 0 0 0 0 0 0 0 0 0 0 0 0 0 0 0 0 0 0 0 0 0 0 0 0 0 0 0 0 0 0 0 0 0 0 0 0 0 0 0 0 0 0 1 0 0
0 0 0 0 0 0 0 0 0 0 0 0 0 0 0 0 0 0 0 0 0 0 0 0 0 0 0 0 0 0 0 0 0 0 0 0 0 0 0 0 0 0 0 0 0 0 0 0 0 0 1 1 1 0
0 0 0 0 0 0 0 0 0 0 0 0 0 0 0 0 0 0 0 0 0 0 0 0 0 0 0 0 0 0 0 0 0 0 0 0 0 0 0 0 0 0 0 0 0 0 0 0 0 0 1 1 0 0
0 0 0 0 0 0 0 0 0 0 0 0 0 0 0 0 0 0 0 0 0 0 0 0 0 0 0 0 0 0 0 0 0 0 0 0 0 0 0 0 0 0 0 0 0 0 0 0 0 0 0 0 0 0
0 0 0 0 0 0 0 0 0 0 0 0 0 0 0 0 0 0 0 0 0 0 0 0 0 0 0 0 0 0 0 0 0 0 0 0 0 0 0 0 0 0 0 0 -0 0 0 0 0 0 0 0 0 0
0 0 0 0 0 0 0 0 0 0 0 0 0 0 0 0 0 0 0 0 0 0 0 0 0 0 0 0 0 0 0 0 0 0 0 0 0 0 0 0 0 0 0 0 0 0 0 0 0 0 0 0 0 0
0 0 0 0 0 0 0 0 0 0 0 0 0 0 0 0 0 0 0 0 0 0 0 0 0 0 0 0 0 0 0 0 0 0 0 0 0 0 0 0 0 0 0 0 0 0 0 0 0 0 0 0 0 0
0 0 0 0 0 0 0 0 0 0 0 0 0 0 0 0 0 0 0 0 0 0 0 0 0 0 0 0 0 0 0 0 0 0 0 0 0 0 0 0 0 0 0 0 0 0 0 0 0 0 0 0 0 0
0 0 0 0 0 0 0 0 0 0 0 0 0 0 0 0 0 0 0 0 0 0 0 0 0 0 0 0 0 0 0 0 0 0 0 0 0 0 0 0 0 0 0 0 0 0 0 0 0 0 0 0 0 0
0 0 0 0 0 0 0 0 0 0 0 0 0 0 0 0 0 0 0 0 0 0 0 0 0 0 0 0 0 0 0 0 0 0 0 0 0 0 0 0 0 0 0 0 0 0 0 0 0 0 0 0 0 0
0 0 0 0 0 0 0 0 0 0 0 0 0 0 0 0 0 0 0 0 0 0 0 0 0 0 0 0 0 0 0 0 0 0 0 0 0 0 0 0 0 0 0 0 0 0 0 0 0 0 0 0 0 0
0 0 0 0 0 0 0 0 0 0 0 0 0 0 0 0 0 0 0 0 0 0 0 0 0 0 0 0 0 0 0 0 0 0 0 0 0 0 0 0 0 0 0 0 0 0 0 0 0 0 0 0 0 0
0 0 0 0 0 0 0 0 0 0 0 0 0 0 0 0 0 0 0 0 0 0 0 0 0 0 0 0 0 0 0 0 0 0 0 0 0 0 0 0 0 -0 -0 -0 0 0 0 0 0 0 0 0 0 0
0 0 0 0 0 0 0 0 0 0 0 0 0 0 0 0 0 0 0 0 0 0 0 0 0 0 0 0 0 0 0 0 0 0 0 0 0 0 -0 -0 -0 0 0 0 0 0 0 0 0 0 0 0 0 0
0 0 0 0 0 0 0 0 0 0 0 0 0 0 0 0 0 0 0 0 0 0 0 0 0 0 0 0 0 0 0 0 0 0 -0 -0 -0 -0 -0 -0 0 0 0 0 0 0 0 0 0 0 0 0 0 0
0 0 0 0 0 0 0 0 0 0 0 0 0 0 0 0 0 0 0 0 0 0 0 0 0 0 0 0 0 0 0 0 -0 -0 -0 -0 -0 -0 -0 0 0 0 0 0 0 0 0 0 0 -0 -0 0 0 0
0 0 0 0 0 0 0 0 0 0 0 0 0 0 0 0 0 0 0 0 0 0 0 0 0 0 0 0 0 0 0 0 -0 -0 -0 0 0 0 0 0 0 0 0 0 0 0 0 0 0 0 0 0 0 0
0 0 0 0 0 0 0 0 0 0 0 0 0 0 0 0 0 0 0 0 0 0 0 0 0 0 0 0 0 0 0 -0 -0 -0 -0 -0 -0 -0 0 -0 -0 -0 0 0 0 0 0 0 0 0 0 0 0 0
0 0 0 0 0 0 0 0 0 0 0 0 0 0 0 0 0 0 0 -0 -0 0 -0 -0 0 -0 -0 -0 -0 -0 -0 -0 -0 -0 0 0 0 -0 -0 -0 -0 -0 0 -0 0 0 0 0 0 0 -0 0 0 0
0 0 0 0 0 0 0 0 0 0 0 0 0 0 0 0 0 0 0 0 0 -0 -0 -0 -0 -0 -0 -0 -0 -0 -0 0 0 0 0 -0 0 0 0 -0 -0 -0 -0 0 0 -0 0 0 0 -0 -0 -0 -0 -0
0 0 0 0 0 0 0 0 0 0 0 0 0 0 0 0 0 -0 0 0 -0 -0 -0 -0 -0 -0 0 0 0 0 0 0 0 0 0 -0 -0 0 0 0 0 0 -0 -0 -0 -0 -0 -0 -0 -0 -0 -0 -0 -0
0 0 0 0 0 0 0 0 0 0 0 0 -0 -0 -0 -0 -0 -0 -0 -0 -0 -0 -0 0 0 0 0 0 0 0 0 0 0 0 0 -0 -0 -0 -0 -0 -0 -0 -0 -0 -0 -0 -0 0 -0 -0 -0 -0 -0 -0
0 0 0 0 0 0 0 0 0 0 0 0 0 -0 -0 -0 0 0 -0 -0 0 0 0 0 0 0 0 0 0 0 0 0 0 0 -0 -0 -0 -0 -0 -0 -0 -0 -0 0 0 0 0 0 0 0 0 -0 -0 -0
0 0 0 0 0 0 0 0 0 0 0 0 0 0 0 0 0 0 0 0 0 0 0 0 0 0 0 0 0 0 0 0 0 0 -0 -0 0 -0 0 0 0 0 0 0 0 0 0 0 0 0 -0 0 0 0
0 0 0 0 0 0 0 0 0 0 0 0 0 0 0 0 0 0 0 0 0 0 0 0 0 0 0 0 0 0 0 0 0 -0 -0 -0 -0 0 0 0 0 0 0 0 0 0 0 0 0 0 0 0 0 0
0 0 0 0 0 0 0 0 0 0 0 0 0 0 0 0 0 0 0 0 0 0 0 0 0 0 0 0 0 0 0 0 -0 0 0 0 0 0 -0 -0 -0 -0 -0 -0 -0 0 0 0 0 0 0 0 0 0
0 0 0 0 0 0 0 0 0 0 0 0 0 0 0 0 0 0 0 0 0 0 0 0 0 0 0 0 0 0 0 -0 -0 -0 0 0 0 -0 -0 -0 -0 0 0 0 0 0 0 0 0 0 0 0 0 0
0 0 0 0 0 0 0 0 0 0 0 0 0 0 0 0 0 0 0 0 0 0 0 0 0 0 0 0 0 -0 0 0 -0 -0 -0 0 -0 0 0 0 0 0 0 0 0 0 0 0 0 0 0 0 0 0
0 0 0 0 0 0 0 0 0 0 0 0 0 0 0 0 0 0 0 0 0 0 0 0 0 0 0 -0 -0 0 0 0 0 0 0 0 0 0 0 0 0 0 0 0 0 0 0 0 0 0 0 0 0 0
0 0 0 0 0 0 0 0 0 0 0 0 0 0 0 0 0 0 0 0 0 0 0 0 0 0 0 -0 0 0 0 0 0 0 0 0 0 0 0 0 0 0 0 0 0 0 0 0 0 0 0 0 0 0
Wind_Speed_500mb
31 31 28 24 19 17 17 19 19 21 20 19 20 18 17 14 10 6 8 12 14 11 20 12 8 6 10 8 3 15 7 9 9 8 4 4 3 1 6 3 4 6 8 4 4 8 11 11 6 9 6 3 15 29
33 33 30 26 22 19 18 18 19 20 21 18 19 18 17 15 11 9 7 15 19 14 15 27 28 24 24 14 11 10 2 3 6 6 3 4 5 5 2 2 8 3 8 5 10 8 6 13 6 3 3 7 13 32
36 34 31 27 24 21 18 19 20 21 21 18 17 18 15 14 13 11 10 11 19 12 19 9 3 7 8 4 4 6 6 7 6 4 7 4 8 5 4 3 2 7 3 4 5 3 6 14 6 9 9 6 6 14
38 34 31 29 26 23 21 22 22 22 21 18 16 17 14 12 13 12 12 8 13 9 5 4 7 9 9 3 2 6 11 9 10 9 5 5 5 2 5 5 5 6 2 9 4 8 7 4 7 8 11 11 7 17
38 35 33 31 29 27 25 25 22 22 21 18 14 16 14 11 10 9 3 6 13 11 6 17 9 3 11 8 4 9 11 9 8 5 4 1 4 6 3 2 3 1 7 6 8 10 5 6 2 3 9 14 11 7
39 36 33 32 30 27 25 23 21 20 19 17 13 14 13 9 4 6 2 3 9 17 9 7 7 1 17 11 7 10 8 2 1 1 1 1 2 1 5 2 7 1 6 5 8 19 12 8 1 14 19 15 12 15
35 33 34 34 32 28 24 22 19 18 17 15 13 12 10 8 4 4 3 3 9 13 6 13 16 2 13 12 5 4 7 3 1 2 1 2 3 3 5 6 11 13 15 26 27 24 11 10 11 16 14 11 7 6
37 35 33 32 31 28 26 24 20 17 15 13 11 9 8 7 2 6 5 4 10 7 5 2 10 6 9 7 7 6 6 8 4 1 2 3 3 2 2 18 12 20 18 26 31 6 10 15 13 11 10 9 5 4
35 33 29 25 24 25 25 22 19 16 13 10 5 1 4 6 5 6 3 10 10 7 4 4 3 6 2 4 4 4 3 3 2 2 4 7 3 3 9 13 14 14 21 25 25 28 24 18 16 13 10 7 8 10
40 35 28 25 22 22 20 19 17 14 9 5 9 4 5 6 4 3 3 3 3 6 9 9 6 6 2 1 2 2 3 2 1 4 5 4 4 7 16 15 15 13 23 24 37 30 27 25 21 17 12 11 12 18
43 40 35 28 24 20 15 16 16 10 10 12 6 5 5 3 3 3 3 2 4 5 11 12 17 4 5 3 5 1 4 0 3 6 5 2 3 8 16 21 14 5 15 36 23 21 19 19 16 13 11 13 15 18
45 41 40 39 29 23 14 16 16 16 13 10 5 6 7 4 2 1 4 5 6 8 9 9 11 18 4 5 3 1 4 3 4 4 4 3 4 13 25 29 31 31 29 27 19 14 10 5 2 6 11 15 18 20
44 49 38 40 32 26 18 16 19 21 17 7 3 4 2 3 7 7 9 5 5 6 6 10 7 11 8 5 7 4 3 6 3 4 1 2 9 11 10 10 12 11 10 9 7 8 13 17 20 23 27 28 30 31
40 54 48 42 36 30 21 21 22 24 10 4 5 4 6 5 8 9 8 7 8 13 14 10 7 6 5 3 6 2 3 2 3 1 1 5 12 9 4 8 11 14 18 22 28 31 34 38 41 42 43 42 43 47
43 53 43 46 38 31 25 24 23 24 5 3 3 4 9 15 16 17 16 17 18 16 7 6 5 3 2 6 1 4 1 3 1 3 4 16 11 3 8 17 24 29 33 36 37 37 35 32 35 40 41 43 48 55
45 47 43 45 41 35 29 27 26 15 2 4 6 5 13 9 11 8 15 25 11 8 5 5 5 5 4 4 3 6 2 4 5 4 11 8 5 15 24 30 34 37 37 36 31 30 29 25 29 34 32 32 33 36
51 34 43 46 42 35 32 29 21 7 4 5 9 15 25 24 20 13 8 4 8 7 4 4 5 3 5 3 1 1 4 5 13 13 4 9 20 28 33 38 37 34 31 29 30 26 25 22 25 27 28 26 31 31
37 37 52 51 44 40 34 15 9 8 8 13 9 11 8 13 15 6 3 5 5 1 4 4 8 4 4 4 4 3 5 9 5 6 16 21 28 30 29 31 27 23 23 19 15 14 10 12 14 16 17 16 9 6
39 49 43 45 40 20 12 11 6 6 14 9 15 21 18 11 2 6 8 8 8 8 9 6 7 3 4 5 6 11 6 2 11 21 25 26 26 21 22 21 20 12 11 10 8 5 7 13 13 15 6 8 12 11
43 50 57 46 29 6 7 8 8 7 5 3 10 9 5 1 9 8 12 9 4 2 5 4 6 6 6 9 8 4 6 15 24 30 26 16 16 16 11 21 19 12 9 8 10 9 8 9 12 10 10 10 13 16
53 51 46 35 6 3 4 6 8 6 4 5 7 2 2 6 3 4 9 12 3 2 3 4 8 12 10 8 9 13 18 24 25 20 23 24 13 9 11 13 10 11 9 8 12 16 17 17 17 19 19 21 21 22
41 36 34 17 4 3 5 8 2 4 3 4 2 3 5 4 7 9 16 3 4 5 5 5 9 10 13 17 22 26 27 24 18 17 16 14 8 5 9 7 5 10 13 15 18 20 22 23 23 25 30 30 29 31
34 19 4 3 3 3 4 3 5 6 4 5 3 5 6 5 9 10 5 5 7 8 9 9 13 19 22 23 24 20 15 13 12 11 2 4 3 4 6 11 14 21 22 23 28 32 37 36 37 38 38 41 45 45
4 3 3 3 5 1 4 5 3 3 2 5 4 3 4 6 10 6 5 9 7 7 10 13 15 11 7 6 6 4 5 3 9 8 9 8 15 25 28 34 35 40 41 42 41 40 36 35 32 33 35 33 32 29
4 3 1 3 1 2 4 4 5 6 3 3 2 1 3 2 2 2 5 9 10 10 11 10 9 5 4 3 3 13 10 19 16 20 24 30 42 44 42 39 37 34 31 28 29 28 27 25 24 22 24 26 28 31
2 4 3 5 4 3 2 4 2 3 1 2 2 2 3 2 4 7 6 8 9 9 7 8 8 5 3 8 14 20 22 23 28 37 39 36 32 30 29 26 23 18 15 11 9 7 7 11 11 12 10 9 12 13
2 1 2 5 3 2 4 3 4 4 4 6 5 6 3 4 6 7 7 9 6 6 10 11 8 11 18 26 27 27 29 27 27 27 25 22 18 10 6 7 10 7 10 11 10 8 9 13 13 9 8 9 10 5
2 3 5 1 3 2 1 3 5 6 6 8 8 7 5 7 5 3 5 7 9 13 16 18 27 29 27 23 22 18 12 8 10 17 19 15 9 5 2 1 3 8 10 10 9 5 4 4 5 9 12 12 10 5
4 5 7 5 6 6 7 8 7 10 8 15 6 5 5 5 9 8 3 14 21 38 44 38 28 20 16 13 10 8 7 4 3 5 8 11 8 7 8 9 10 8 6 7 8 8 7 6 3 6 10 8 8 5
6 12 6 6 6 6 8 14 11 11 9 16 14 7 7 7 3 15 32 40 34 33 26 19 17 11 7 5 7 6 5 7 5 11 14 23 26 22 19 14 8 5 6 5 6 10 7 5 7 11 8 10 12 14
9 17 7 10 8 9 13 9 8 3 3 0 7 12 11 13 24 33 28 27 26 22 18 16 10 1 6 11 13 8 6 10 15 18 17 18 14 12 12 11 8 5 2 6 12 13 12 9 11 17 18 19 18 12
9 12 5 3 6 10 8 5 6 8 11 20 25 22 23 18 10 23 26 22 18 17 15 9 5 1 8 13 21 13 5 3 9 14 25 29 16 13 13 11 11 12 12 9 13 15 18 16 11 14 18 16 15 17
31 29 20 9 4 6 10 8 10 9 11 8 6 6 8 2 3 6 8 11 9 6 7 11 11 5 5 6 13 14 8 6 6 8 9 10 9 11 9 8 10 12 13 13 16 12 10 11 13 13 11 14 14 14
Wind_Direction_500mb
227 229 231 239 253 273 291 304 316 336 335 341 347 346 348 359 2 317 292 343 1 307 290 272 264 307 348 359 54 328 350 357 4 61 109 195 117 4 59 324 114 146 131 144 124 99 270 8 295 180 233 205 188 177
225 226 229 235 248 264 279 292 304 322 333 331 340 344 346 348 356 347 295 292 311 290 276 290 282 269 273 279 292 355 96 296 0 74 46 100 57 35 100 196 344 39 161 193 177 214 303 306 268 296 125 57 164 180
222 223 227 235 244 255 266 282 295 306 323 324 330 338 341 340 343 339 326 304 318 309 299 296 110 198 206 196 227 323 14 7 31 20 151 142 83 121 101 255 330 356 77 121 74 258 298 322 49 81 103 98 162 187
220 223 228 235 241 248 258 272 284 294 307 315 317 327 331 330 332 334 331 352 356 323 316 288 18 130 157 129 295 289 300 322 350 352 59 102 112 168 197 204 163 209 66 147 242 272 311 335 38 72 78 76 74 174
216 224 230 237 241 249 254 263 268 279 293 306 302 315 321 321 331 342 74 37 15 8 291 296 299 170 196 188 254 290 271 287 311 331 43 157 146 112 9 82 315 214 174 167 223 183 167 208 5 104 89 87 92 113
215 221 229 234 242 246 245 248 256 267 279 295 290 305 309 313 323 155 253 300 352 358 328 325 306 43 167 186 230 293 237 220 308 200 269 229 144 117 97 194 279 99 155 173 160 154 134 123 49 144 134 111 93 88
220 223 230 238 237 235 232 236 249 261 273 280 282 292 295 295 250 201 100 26 339 336 321 310 325 11 187 199 243 226 176 164 163 189 278 313 155 62 100 175 184 134 120 138 140 129 139 146 110 119 123 114 101 81
224 227 228 227 226 224 225 231 242 255 266 268 276 285 283 282 245 160 163 309 332 310 292 312 279 321 183 205 184 180 194 179 195 228 208 208 130 67 213 246 192 178 163 167 169 225 165 148 143 145 145 149 180 258
213 210 204 204 210 209 217 226 235 245 256 259 265 246 120 127 118 136 232 290 286 247 279 216 230 246 306 209 177 165 191 78 192 206 243 133 315 208 249 312 310 211 192 193 188 164 166 174 173 176 189 228 267 286
199 197 198 201 199 204 214 220 227 230 232 205 148 117 124 134 147 297 271 253 219 215 226 242 227 263 290 242 88 107 36 119 97 260 133 83 255 342 346 306 289 244 218 201 169 171 177 172 170 178 203 228 262 279
197 201 199 196 192 194 205 212 202 196 177 155 149 140 130 206 208 213 257 221 196 258 218 237 218 250 211 147 202 175 162 33 50 269 131 58 6 360 60 79 82 87 182 179 194 178 183 189 187 189 211 240 247 257
209 206 197 196 199 195 200 198 184 174 156 157 156 143 168 179 183 92 259 293 207 237 216 203 218 207 222 222 138 52 115 57 225 317 83 123 236 115 96 86 82 84 96 108 112 114 111 111 168 259 272 272 271 267
204 197 187 188 193 194 195 187 179 172 163 147 146 145 122 146 48 205 204 245 259 232 231 199 182 167 155 166 84 63 87 236 302 51 124 181 135 129 101 92 79 62 47 41 12 325 306 295 288 283 278 275 273 272
197 191 190 183 187 188 186 182 177 169 164 160 164 356 166 246 242 206 200 209 295 276 310 224 171 159 139 100 108 125 253 74 20 271 193 159 160 138 75 22 354 345 331 317 306 301 297 292 284 275 272 273 274 272
186 172 173 181 180 183 176 174 172 168 147 173 196 213 227 243 267 268 274 269 305 290 262 178 117 141 84 116 280 91 111 242 213 194 162 163 183 219 311 317 320 318 314 309 305 299 293 287 286 285 280 274 269 268
159 157 171 173 172 176 170 164 165 164 164 215 226 258 259 279 299 315 265 266 279 275 168 126 73 55 39 100 134 214 205 203 202 205 161 163 258 301 309 310 310 310 309 309 306 300 293 291 298 294 289 277 280 281
157 151 167 167 162 155 154 152 145 209 236 233 252 259 276 285 278 291 291 263 287 220 165 129 91 133 108 76 160 197 184 202 144 135 148 306 313 317 315 313 310 307 304 304 304 302 290 288 295 289 288 290 285 281
157 154 155 150 149 147 150 157 171 195 239 243 259 281 275 293 282 294 341 344 335 92 127 116 115 87 139 179 244 217 132 134 147 321 319 317 319 319 317 314 315 315 311 318 321 321 312 307 316 308 295 296 307 314
147 144 147 145 142 133 150 193 206 238 241 263 275 279 276 279 319 36 65 58 77 84 115 101 87 153 221 207 167 146 141 328 309 315 321 320 317 322 330 332 323 337 347 7 11 3 342 348 351 341 321 314 328 329
139 139 136 152 151 139 153 177 205 256 264 249 276 284 259 202 138 71 45 43 84 66 65 80 185 192 172 152 159 177 305 321 318 311 312 324 319 330 340 5 12 5 4 44 24 36 10 9 10 6 5 354 358 342
135 146 161 164 188 237 208 196 220 246 302 298 330 300 80 118 93 48 27 14 7 73 182 203 186 169 175 205 242 277 293 304 305 298 309 319 326 330 331 345 0 2 12 45 65 61 57 64 66 63 55 50 49 57
153 158 166 187 305 282 248 200 256 320 284 316 359 39 73 51 24 3 341 294 251 229 224 223 213 231 251 263 273 279 286 289 290 294 298 305 315 314 316 348 63 46 90 72 71 78 77 75 75 74 78 75 75 73
139 159 216 225 285 252 54 90 11 2 26 348 84 61 34 30 359 336 297 266 265 263 253 262 289 285 280 279 272 271 268 273 279 286 171 94 20 59 63 84 77 95 90 84 89 88 83 79 78 76 79 83 81 79
156 236 264 255 216 198 219 140 201 335 47 42 53 72 21 344 344 12 296 283 240 232 257 283 295 296 285 287 291 257 272 250 134 113 116 115 98 100 99 97 98 98 97 96 92 87 85 84 84 86 85 81 67 63
302 188 290 317 246 302 85 47 25 45 59 7 105 189 252 320 329 271 242 263 250 263 273 255 232 239 283 310 105 93 135 107 101 109 105 115 109 107 107 106 104 100 96 94 93 87 80 77 79 85 87 85 80 79
94 15 41 12 13 86 161 120 142 168 157 311 254 172 180 216 238 234 238 251 252 273 252 223 203 193 175 129 134 104 100 105 110 116 119 121 119 112 110 104 96 87 76 68 58 55 75 88 77 60 50 73 75 75
25 274 79 14 10 75 78 117 156 155 212 223 191 185 190 246 252 245 257 264 266 199 175 162 167 151 124 116 117 107 100 101 123 131 137 140 135 123 85 63 102 28 35 70 66 57 81 87 72 63 40 25 42 66
226 188 175 200 330 324 281 184 194 218 219 204 170 195 219 214 245 267 283 288 153 148 152 140 124 124 124 115 105 96 77 99 163 178 184 196 211 223 243 130 157 106 92 73 45 17 199 209 19 32 15 23 47 82
225 180 176 230 237 232 239 218 232 221 221 192 197 217 237 245 287 289 192 129 130 119 116 118 124 126 123 119 104 87 102 90 91 166 187 191 157 127 132 131 124 122 88 60 41 23 349 353 114 8 344 31 53 59
225 191 193 219 208 229 241 215 241 273 249 220 222 247 270 298 110 106 121 122 123 127 130 135 138 138 148 182 196 211 240 232 175 131 143 148 146 145 145 145 142 103 113 77 51 19 13 29 355 345 331 341 336 325
192 188 223 223 233 231 246 278 272 221 172 173 119 133 119 97 112 129 134 141 152 158 161 164 171 176 239 237 238 287 254 252 227 198 169 172 172 170 173 177 182 203 242 334 334 328 321 291 314 329 327 314 308 299
193 205 239 43 42 80 101 89 66 72 67 69 80 86 94 113 127 178 180 173 182 187 181 196 242 201 281 245 238 222 239 259 225 231 216 211 226 262 253 267 256 257 249 275 296 297 288 277 290 315 328 327 318 319
96 87 92 80 12 27 33 63 71 71 71 59 60 67 82 22 250 214 191 197 192 196 226 258 232 203 219 223 225 216 234 224 195 180 159 177 215 243 254 243 233 241 267 293 308 303 270 278 304 319 326 329 326 319
Wind_Speed_850mb
31 31 28 24 19 17 17 19 19 21 20 19 20 18 17 14 10 6 8 12 14 11 20 12 8 6 10 8 3 15 7 9 9 8 4 4 3 1 6 3 4 6 8 4 4 8 11 11 6 9 6 3 15 29
33 33 30 26 22 19 18 18 19 20 21 18 19 18 17 15 11 9 7 15 19 14 15 27 28 24 24 14 11 10 2 3 6 6 3 4 5 5 2 2 8 3 8 5 10 8 6 13 6 3 3 7 13 32
36 34 31 27 24 21 18 19 20 21 21 18 17 18 15 14 13 11 10 11 19 12 19 9 3 7 8 4 4 6 6 7 6 4 7 4 8 5 4 3 2 7 3 4 5 3 6 14 6 9 9 6 6 14
38 34 31 29 26 23 21 22 22 22 21 18 16 17 14 12 13 12 12 8 13 9 5 4 7 9 9 3 2 6 11 9 10 9 5 5 5 2 5 5 5 6 2 9 4 8 7 4 7 8 11 11 7 17
38 35 33 31 29 27 25 25 22 22 21 18 14 16 14 11 10 9 3 6 13 11 6 17 9 3 11 8 4 9 11 9 8 5 4 1 4 6 3 2 3 1 7 6 8 10 5 6 2 3 9 14 11 7
39 36 33 32 30 27 25 23 21 20 19 17 13 14 13 9 4 6 2 3 9 17 9 7 7 1 17 11 7 10 8 2 1 1 1 1 2 1 5 2 7 1 6 5 8 19 12 8 1 14 19 15 12 15
35 33 34 34 32 28 24 22 19 18 17 15 13 12 10 8 4 4 3 3 9 13 6 13 16 2 13 12 5 4 7 3 1 2 1 2 3 3 5 6 11 13 15 26 27 24 11 10 11 16 14 11 7 6
37 35 33 32 31 28 26 24 20 17 15 13 11 9 8 7 2 6 5 4 10 7 5 2 10 6 9 7 7 6 6 8 4 1 2 3 3 2 2 18 12 20 18 26 31 6 10 15 13 11 10 9 5 4
35 33 29 25 24 25 25 22 19 16 13 10 5 1 4 6 5 6 3 10 10 7 4 4 3 6 2 4 4 4 3 3 2 2 4 7 3 3 9 13 14 14 21 25 25 28 24 18 16 13 10 7 8 10
40 35 28 25 22 22 20 19 17 14 9 5 9 4 5 6 4 3 3 3 3 6 9 9 6 6 2 1 2 2 3 2 1 4 5 4 4 7 16 15 15 13 23 24 37 30 27 25 21 17 12 11 12 18
43 40 35 28 24 20 15 16 16 10 10 12 6 5 5 3 3 3 3 2 4 5 11 12 17 4 5 3 5 1 4 0 3 6 5 2 3 8 16 21 14 5 15 36 23 21 19 19 16 13 11 13 15 18
45 41 40 39 29 23 14 16 16 16 13 10 5 6 7 4 2 1 4 5 6 8 9 9 11 18 4 5 3 1 4 3 4 4 4 3 4 13 25 29 31 31 29 27 19 14 10 5 2 6 11 15 18 20
44 49 38 40 32 26 18 16 19 21 17 7 3 4 2 3 7 7 9 5 5 6 6 10 7 11 8 5 7 4 3 6 3 4 1 2 9 11 10 10 12 11 10 9 7 8 13 17 20 23 27 28 30 31
40 54 48 42 36 30 21 21 22 24 10 4 5 4 6 5 8 9 8 7 8 13 14 10 7 6 5 3 6 2 3 2 3 1 1 5 12 9 4 8 11 14 18 22 28 31 34 38 41 42 43 42 43 47
43 53 43 46 38 31 25 24 23 24 5 3 3 4 9 15 16 17 16 17 18 16 7 6 5 3 2 6 1 4 1 3 1 3 4 16 11 3 8 17 24 29 33 36 37 37 35 32 35 40 41 43 48 55
45 47 43 45 41 35 29 27 26 15 2 4 6 5 13 9 11 8 15 25 11 8 5 5 5 5 4 4 3 6 2 4 5 4 11 8 5 15 24 30 34 37 37 36 31 30 29 25 29 34 32 32 33 36
51 34 43 46 42 35 32 29 21 7 4 5 9 15 25 24 20 13 8 4 8 7 4 4 5 3 5 3 1 1 4 5 13 13 4 9 20 28 33 38 37 34 31 29 30 26 25 22 25 27 28 26 31 31
37 37 52 51 44 40 34 15 9 8 8 13 9 11 8 13 15 6 3 5 5 1 4 4 8 4 4 4 4 3 5 9 5 6 16 21 28 30 29 31 27 23 23 19 15 14 10 12 14 16 17 16 9 6
39 49 43 45 40 20 12 11 6 6 14 9 15 21 18 11 2 6 8 8 8 8 9 6 7 3 4 5 6 11 6 2 11 21 25 26 26 21 22 21 20 12 11 10 8 5 7 13 13 15 6 8 12 11
43 50 57 46 29 6 7 8 8 7 5 3 10 9 5 1 9 8 12 9 4 2 5 4 6 6 6 9 8 4 6 15 24 30 26 16 16 16 11 21 19 12 9 8 10 9 8 9 12 10 10 10 13 16
53 51 46 35 6 3 4 6 8 6 4 5 7 2 2 6 3 4 9 12 3 2 3 4 8 12 10 8 9 13 18 24 25 20 23 24 13 9 11 13 10 11 9 8 12 16 17 17 17 19 19 21 21 22
41 36 34 17 4 3 5 8 2 4 3 4 2 3 5 4 7 9 16 3 4 5 5 5 9 10 13 17 22 26 27 24 18 17 16 14 8 5 9 7 5 10 13 15 18 20 22 23 23 25 30 30 29 31
34 19 4 3 3 3 4 3 5 6 4 5 3 5 6 5 9 10 5 5 7 8 9 9 13 19 22 23 24 20 15 13 12 11 2 4 3 4 6 11 14 21 22 23 28 32 37 36 37 38 38 41 45 45
4 3 3 3 5 1 4 5 3 3 2 5 4 3 4 6 10 6 5 9 7 7 10 13 15 11 7 6 6 4 5 3 9 8 9 8 15 25 28 34 35 40 41 42 41 40 36 35 32 33 35 33 32 29
4 3 1 3 1 2 4 4 5 6 3 3 2 1 3 2 2 2 5 9 10 10 11 10 9 5 4 3 3 13 10 19 16 20 24 30 42 44 42 39 37 34 31 28 29 28 27 25 24 22 24 26 28 31
2 4 3 5 4 3 2 4 2 3 1 2 2 2 3 2 4 7 6 8 9 9 7 8 8 5 3 8 14 20 22 23 28 37 39 36 32 30 29 26 23 18 15 11 9 7 7 11 11 12 10 9 12 13
2 1 2 5 3 2 4 3 4 4 4 6 5 6 3 4 6 7 7 9 6 6 10 11 8 11 18 26 27 27 29 27 27 27 25 22 18 10 6 7 10 7 10 11 10 8 9 13 13 9 8 9 10 5
2 3 5 1 3 2 1 3 5 6 6 8 8 7 5 7 5 3 5 7 9 13 16 18 27 29 27 23 22 18 12 8 10 17 19 15 9 5 2 1 3 8 10 10 9 5 4 4 5 9 12 12 10 5
4 5 7 5 6 6 7 8 7 10 8 15 6 5 5 5 9 8 3 14 21 38 44 38 28 20 16 13 10 8 7 4 3 5 8 11 8 7 8 9 10 8 6 7 8 8 7 6 3 6 10 8 8 5
6 12 6 6 6 6 8 14 11 11 9 16 14 7 7 7 3 15 32 40 34 33 26 19 17 11 7 5 7 6 5 7 5 11 14 23 26 22 19 14 8 5 6 5 6 10 7 5 7 11 8 10 12 14
9 17 7 10 8 9 13 9 8 3 3 0 7 12 11 13 24 33 28 27 26 22 18 16 10 1 6 11 13 8 6 10 15 18 17 18 14 12 12 11 8 5 2 6 12 13 12 9 11 17 18 19 18 12
9 12 5 3 6 10 8 5 6 8 11 20 25 22 23 18 10 23 26 22 18 17 15 9 5 1 8 13 21 13 5 3 9 14 25 29 16 13 13 11 11 12 12 9 13 15 18 16 11 14 18 16 15 17
31 29 20 9 4 6 10 8 10 9 11 8 6 6 8 2 3 6 8 11 9 6 7 11 11 5 5 6 13 14 8 6 6 8 9 10 9 11 9 8 10 12 13 13 16 12 10 11 13 13 11 14 14 14
Wind_Direction_850mb
227 229 231 239 253 273 291 304 316 336 335 341 347 346 348 359 2 317 292 343 1 307 290 272 264 307 348 359 54 328 350 357 4 61 109 195 117 4 59 324 114 146 131 144 124 99 270 8 295 180 233 205 188 177
225 226 229 235 248 264 279 292 304 322 333 331 340 344 346 348 356 347 295 292 311 290 276 290 282 269 273 279 292 355 96 296 0 74 46 100 57 35 100 196 344 39 161 193 177 214 303 306 268 296 125 57 164 180
222 223 227 235 244 255 266 282 295 306 323 324 330 338 341 340 343 339 326 304 318 309 299 296 110 198 206 196 227 323 14 7 31 20 151 142 83 121 101 255 330 356 77 121 74 258 298 322 49 81 103 98 162 187
220 223 228 235 241 248 258 272 284 294 307 315 317 327 331 330 332 334 331 352 356 323 316 288 18 130 157 129 295 289 300 322 350 352 59 102 112 168 197 204 163 209 66 147 242 272 311 335 38 72 78 76 74 174
216 224 230 237 241 249 254 263 268 279 293 306 302 315 321 321 331 342 74 37 15 8 291 296 299 170 196 188 254 290 271 287 311 331 43 157 146 112 9 82 315 214 174 167 223 183 167 208 5 104 89 87 92 113
215 221 229 234 242 246 245 248 256 267 279 295 290 305 309 313 323 155 253 300 352 358 328 325 306 43 167 186 230 293 237 220 308 200 269 229 144 117 97 194 279 99 155 173 160 154 134 123 49 144 134 111 93 88
220 223 230 238 237 235 232 236 249 261 273 280 282 292 295 295 250 201 100 26 339 336 321 310 325 11 187 199 243 226 176 164 163 189 278 313 155 62 100 175 184 134 120 138 140 129 139 146 110 119 123 114 101 81
224 227 228 227 226 224 225 231 242 255 266 268 276 285 283 282 245 160 163 309 332 310 292 312 279 321 183 205 184 180 194 179 195 228 208 208 130 67 213 246 192 178 163 167 169 225 165 148 143 145 145 149 180 258
213 210 204 204 210 209 217 226 235 245 256 259 265 246 120 127 118 136 232 290 286 247 279 216 230 246 306 209 177 165 191 78 192 206 243 133 315 208 249 312 310 211 192 193 188 164 166 174 173 176 189 228 267 286
199 197 198 201 199 204 214 220 227 230 232 205 148 117 124 134 147 297 271 253 219 215 226 242 227 263 290 242 88 107 36 119 97 260 133 83 255 342 346 306 289 244 218 201 169 171 177 172 170 178 203 228 262 279
197 201 199 196 192 194 205 212 202 196 177 155 149 140 130 206 208 213 257 221 196 258 218 237 218 250 211 147 202 175 162 33 50 269 131 58 6 360 60 79 82 87 182 179 194 178 183 189 187 189 211 240 247 257
209 206 197 196 199 195 200 198 184 174 156 157 156 143 168 179 183 92 259 293 207 237 216 203 218 207 222 222 138 52 115 57 225 317 83 123 236 115 96 86 82 84 96 108 112 114 111 111 168 259 272 272 271 267
204 197 187 188 193 194 195 187 179 172 163 147 146 145 122 146 48 205 204 245 259 232 231 199 182 167 155 166 84 63 87 236 302 51 124 181 135 129 101 92 79 62 47 41 12 325 306 295 288 283 278 275 273 272
197 191 190 183 187 188 186 182 177 169 164 160 164 356 166 246 242 206 200 209 295 276 310 224 171 159 139 100 108 125 253 74 20 271 193 159 160 138 75 22 354 345 331 317 306 301 297 292 284 275 272 273 274 272
186 172 173 181 180 183 176 174 172 168 147 173 196 213 227 243 267 268 274 269 305 290 262 178 117 141 84 116 280 91 111 242 213 194 162 163 183 219 311 317 320 318 314 309 305 299 293 287 286 285 280 274 269 268
159 157 171 173 172 176 170 164 165 164 164 215 226 258 259 279 299 315 265 266 279 275 168 126 73 55 39 100 134 214 205 203 202 205 161 163 258 301 309 310 310 310 309 309 306 300 293 291 298 294 289 277 280 281
157 151 167 167 162 155 154 152 145 209 236 233 252 259 276 285 278 291 291 263 287 220 165 129 91 133 108 76 160 197 184 202 144 135 148 306 313 317 315 313 310 307 304 304 304 302 290 288 295 289 288 290 285 281
157 154 155 150 149 147 150 157 171 195 239 243 259 281 275 293 282 294 341 344 335 92 127 116 115 87 139 179 244 217 132 134 147 321 319 317 319 319 317 314 315 315 311 318 321 321 312 307 316 308 295 296 307 314
147 144 147 145 142 133 150 193 206 238 241 263 275 279 276 279 319 36 65 58 77 84 115 101 87 153 221 207 167 146 141 328 309 315 321 320 317 322 330 332 323 337 347 7 11 3 342 348 351 341 321 314 328 329
139 139 136 152 151 139 153 177 205 256 264 249 276 284 259 202 138 71 45 43 84 66 65 80 185 192 172 152 159 177 305 321 318 311 312 324 319 330 340 5 12 5 4 44 24 36 10 9 10 6 5 354 358 342
135 146 161 164 188 237 208 196 220 246 302 298 330 300 80 118 93 48 27 14 7 73 182 203 186 169 175 205 242 277 293 304 305 298 309 319 326 330 331 345 0 2 12 45 65 61 57 64 66 63 55 50 49 57
153 158 166 187 305 282 248 200 256 320 284 316 359 39 73 51 24 3 341 294 251 229 224 223 213 231 251 263 273 279 286 289 290 294 298 305 315 314 316 348 63 46 90 72 71 78 77 75 75 74 78 75 75 73
139 159 216 225 285 252 54 90 11 2 26 348 84 61 34 30 359 336 297 266 265 263 253 262 289 285 280 279 272 271 268 273 279 286 171 94 20 59 63 84 77 95 90 84 89 88 83 79 78 76 79 83 81 79
156 236 264 255 216 198 219 140 201 335 47 42 53 72 21 344 344 12 296 283 240 232 257 283 295 296 285 287 291 257 272 250 134 113 116 115 98 100 99 97 98 98 97 96 92 87 85 84 84 86 85 81 67 63
302 188 290 317 246 302 85 47 25 45 59 7 105 189 252 320 329 271 242 263 250 263 273 255 232 239 283 310 105 93 135 107 101 109 105 115 109 107 107 106 104 100 96 94 93 87 80 77 79 85 87 85 80 79
94 15 41 12 13 86 161 120 142 168 157 311 254 172 180 216 238 234 238 251 252 273 252 223 203 193 175 129 134 104 100 105 110 116 119 121 119 112 110 104 96 87 76 68 58 55 75 88 77 60 50 73 75 75
25 274 79 14 10 75 78 117 156 155 212 223 191 185 190 246 252 245 257 264 266 199 175 162 167 151 124 116 117 107 100 101 123 131 137 140 135 123 85 63 102 28 35 70 66 57 81 87 72 63 40 25 42 66
226 188 175 200 330 324 281 184 194 218 219 204 170 195 219 214 245 267 283 288 153 148 152 140 124 124 124 115 105 96 77 99 163 178 184 196 211 223 243 130 157 106 92 73 45 17 199 209 19 32 15 23 47 82
225 180 176 230 237 232 239 218 232 221 221 192 197 217 237 245 287 289 192 129 130 119 116 118 124 126 123 119 104 87 102 90 91 166 187 191 157 127 132 131 124 122 88 60 41 23 349 353 114 8 344 31 53 59
225 191 193 219 208 229 241 215 241 273 249 220 222 247 270 298 110 106 121 122 123 127 130 135 138 138 148 182 196 211 240 232 175 131 143 148 146 145 145 145 142 103 113 77 51 19 13 29 355 345 331 341 336 325
192 188 223 223 233 231 246 278 272 221 172 173 119 133 119 97 112 129 134 141 152 158 161 164 171 176 239 237 238 287 254 252 227 198 169 172 172 170 173 177 182 203 242 334 334 328 321 291 314 329 327 314 308 299
193 205 239 43 42 80 101 89 66 72 67 69 80 86 94 113 127 178 180 173 182 187 181 196 242 201 281 245 238 222 239 259 225 231 216 211 226 262 253 267 256 257 249 275 296 297 288 277 290 315 328 327 318 319
96 87 92 80 12 27 33 63 71 71 71 59 60 67 82 22 250 214 191 197 192 196 226 258 232 203 219 223 225 216 234 224 195 180 159 177 215 243 254 243 233 241 267 293 308 303 270 278 304 319 326 329 326 319